Location: Hopkins Observatory
(42.6965°N, 73.1843°W)
Time: 14:15:58
(UTC-04:00)

UOSAT-12 - Visible Passes

Search period start: 25 July 2014 00:00
Search period end: 04 August 2014 00:00
Orbit: 595 x 663 km, 64.6° (Epoch: 25 July)

Date Brightness Start Highest point End Pass type
(mag) Time Alt. Az. Time Alt. Az. Time Alt. Az.
25 Jul 8.2 00:58:03 10° NW 01:01:13 38° WNW 01:01:13 38° WNW visible
25 Jul 8.0 23:38:34 10° NNW 23:43:05 42° NE 23:43:32 41° ENE visible
26 Jul 9.2 01:19:09 10° WNW 01:20:51 18° WNW 01:20:51 18° WNW visible
26 Jul 9.5 22:19:58 10° N 22:22:53 16° NE 22:25:47 10° ENE visible
26 Jul 7.4 23:59:00 10° NNW 00:03:13 70° NNW 00:03:13 70° NNW visible
27 Jul 8.7 22:39:53 10° NNW 22:43:55 27° NE 22:45:39 22° ENE visible
28 Jul 8.3 00:19:45 10° NW 00:22:58 36° WNW 00:22:58 36° WNW visible
28 Jul 9.7 21:22:03 10° NNE 21:23:28 11° NNE 21:24:52 10° NE visible
28 Jul 7.6 23:00:07 10° NNW 23:04:45 50° NE 23:05:26 46° E visible
29 Jul 9.3 00:41:03 10° WNW 00:42:45 17° W 00:42:45 17° W visible
29 Jul 9.2 21:41:21 10° N 21:44:38 18° NE 21:47:54 10° E visible
29 Jul 7.1 23:20:37 10° NW 23:25:15 78° W 23:25:15 78° W visible
30 Jul 8.4 22:01:22 10° NNW 22:05:37 31° NE 22:07:48 21° E visible
30 Jul 8.3 23:41:29 10° NW 23:45:08 34° W 23:45:08 34° W visible
31 Jul 9.5 20:43:09 10° N 20:45:15 13° NNE 20:47:21 10° ENE visible
31 Jul 7.4 22:21:41 10° NNW 22:26:23 61° NE 22:27:43 43° ESE visible
01 Aug 9.4 00:03:03 10° WNW 00:05:03 16° W 00:05:03 16° W visible
01 Aug 9.0 21:02:47 10° N 21:06:23 21° NE 21:09:56 10° E visible
01 Aug 7.3 22:42:16 10° NW 22:46:58 64° WSW 22:47:41 55° SSW visible
02 Aug 8.1 21:22:53 10° NNW 21:27:18 37° NE 21:30:22 17° ESE visible
02 Aug 8.4 23:03:15 10° NW 23:07:21 30° WSW 23:07:42 29° WSW visible
03 Aug 7.2 21:43:16 10° NNW 21:48:01 74° NE 21:50:26 28° SE visible
03 Aug 9.5 23:25:13 10° WNW 23:27:33 14° WSW 23:27:46 14° WSW visible
